Home   Weather   Friedrichshafen   Past weeks

Flag for Germany Past Weather in Friedrichshafen, Baden-Württemberg, Germany — Yesterday and Last 2 Weeks

Now
39 °F

Light rain. Mostly cloudy.


Feels Like: 39 °F
Forecast: 38 / 43 °F
Wind: 2 mph from North

Location: Friedrichshafen Airport

Current Time: Apr 27, 2017 at 1:33:09 pm

Latest Report: Apr 27, 2017 at 12:50 pm


Visibility: 5 mi

Pressure: 29.95 "Hg

Humidity: 93%

Dew Point: 37 °F

Location of FriedrichshafenLocation

Past Weather in Friedrichshafen — Graph

°F

Friedrichshafen Temperature Yesterday

Maximum temperature yesterday: 43 °F (at 12:05 am)
Minimum temperature yesterday: 34 °F (at 11:20 am)
Average temperature yesterday: 38 °F

High & Low Weather Summary for the Past Weeks

 TemperatureHumidityPressure
High64 °F (Apr 12, 4:20 pm)100% (Apr 16, 6:50 am)30.51 "Hg (Apr 16, 6:50 am)
Low25 °F (Apr 21, 5:50 am)11% (Apr 21, 4:50 pm)29.71 "Hg (Apr 26, 12:05 am)
Average44 °F74%30.11 "Hg
* Reported Apr 12 12:20 pm — Apr 27 12:20 pm, Friedrichshafen, Weather by CustomWeather, © 2017

Note: Actual official high and low records may vary slightly from our data, if they occured in-between our weather recording intervals... More about our weather records

Advertising

Friedrichshafen Weather History for the Previous 24 Hours

Scroll right to see more
 ConditionsComfort  
Time TempWeatherWind HumidityBarometerVisibility
12:20 pm
Thu, Apr 27
39 °FLight rain. Mostly cloudy.3 mph87%29.95 "Hg6 mi
11:50 am39 °FLight rain. Mostly cloudy.3 mph87%29.95 "Hg6 mi
11:20 am39 °FLight rain. Low clouds.2 mph93%29.95 "HgN/A
10:50 am39 °FLight rain. Cloudy.2 mph87%29.95 "Hg4 mi
10:20 am37 °FLight rain. Mostly cloudy.3 mph93%29.95 "Hg4 mi
9:50 am37 °FLight rain. More clouds than sun.3 mph93%29.95 "Hg4 mi
9:20 am37 °FLight rain. Mostly cloudy.6 mph93%29.95 "Hg4 mi
8:50 am36 °FLight rain. Mostly cloudy.5 mph100%29.92 "Hg4 mi
8:20 am36 °FLight rain. Low clouds.3 mph100%29.95 "Hg4 mi
7:50 am36 °FLight rain. Low clouds.2 mph100%29.92 "Hg4 mi
7:20 am36 °FLight rain. Fog.2 mph100%29.92 "Hg3 mi
6:50 am36 °FLight rain. Fog.3 mph93%29.92 "Hg3 mi
6:20 am36 °FLight rain. Fog.2 mph100%29.92 "Hg3 mi
5:50 am36 °FLight rain. Fog.2 mph100%29.89 "Hg3 mi
5:20 am36 °FSprinkles. Mostly cloudy.2 mph100%29.89 "Hg3 mi
4:50 am36 °FOvercast.3 mph93%29.89 "Hg4 mi
4:20 am36 °FSprinkles. Mostly cloudy.3 mph100%29.89 "HgN/A
3:20 am36 °FLight rain. Mostly cloudy.2 mph100%29.89 "Hg3 mi
2:50 am37 °FLight rain. Low clouds.2 mph93%29.89 "Hg3 mi
2:20 am37 °FLight rain. Fog.2 mph93%29.89 "Hg2 mi
1:50 am37 °FSprinkles. Low clouds.3 mph93%29.89 "Hg4 mi
1:20 am37 °FSprinkles. Overcast.2 mph93%29.89 "Hg5 mi
12:50 am37 °FSprinkles. Mostly cloudy.3 mph93%29.89 "Hg4 mi
12:20 am37 °FMostly cloudy.3 mph93%29.89 "Hg5 mi
11:50 pm
Wed, Apr 26
37 °FSprinkles. Mostly cloudy.2 mph93%29.89 "HgN/A
11:20 pm37 °FMostly cloudy.5 mph93%29.86 "HgN/A
10:50 pm37 °FLight rain. Mostly cloudy.5 mph93%29.89 "HgN/A
10:20 pm37 °FLight rain. Fog.5 mph93%29.89 "Hg3 mi
9:50 pm37 °FSprinkles. Overcast.5 mph93%29.89 "Hg6 mi
9:20 pm37 °FSprinkles. Overcast.5 mph93%29.89 "HgN/A
8:50 pm37 °FLight rain. Overcast.6 mph93%29.86 "HgN/A
7:50 pm37 °FSprinkles. More clouds than sun.7 mph93%29.86 "HgN/A
7:20 pm37 °FMore clouds than sun.6 mph93%29.86 "HgN/A
6:50 pm39 °FSprinkles. More clouds than sun.7 mph87%29.86 "HgN/A
6:20 pm39 °FSprinkles. More clouds than sun.7 mph87%29.86 "HgN/A
5:50 pm39 °FLow clouds.8 mph87%29.86 "HgN/A
5:20 pm39 °FSprinkles. Low clouds.8 mph93%29.86 "HgN/A
4:50 pm39 °FSprinkles. Overcast.8 mph93%29.86 "HgN/A
3:50 pm39 °FMore clouds than sun.9 mph87%29.83 "HgN/A
3:20 pm39 °FSprinkles. Low clouds.7 mph93%29.83 "HgN/A
2:50 pm39 °FSprinkles. Low clouds.9 mph87%29.83 "HgN/A
2:20 pm37 °FLow clouds.8 mph93%29.83 "HgN/A
1:50 pm37 °FSprinkles. Low clouds.8 mph93%29.83 "HgN/A
1:20 pm37 °FLight rain. More clouds than sun.9 mph93%29.83 "HgN/A
Weather by CustomWeather, © 2017

See weather overviewHow to use our weather pages